Location: Ostrava
(49.8330°N, 18.2830°E)
Time: 19:37:42
(UTC+02:00)

Daily predictions for brighter satellites

Satellite Brightness Start Highest point End
(mag) Time Altitude Azimuth Time Altitude Azimuth Time Altitude Azimuth
NOSS 3-4 (A) 4.0 20:17:04 10° NW 20:23:53 64° NE 20:31:16 10° ESE
NOSS 3-4 (C) 4.0 20:17:10 10° NW 20:23:59 64° NE 20:31:22 10° ESE
Cosmos 2098 Rocket 4.1 20:23:51 10° SE 20:27:02 21° E 20:29:47 10° NE
Cosmos 1408 2.8 20:24:38 10° N 20:28:14 53° ENE 20:31:51 10° SSE
Cosmos 1633 Rocket 3.6 20:24:10 10° NNW 20:28:29 63° W 20:32:46 10° S
Cosmos 2333 Rocket 2.2 20:24:19 10° SSW 20:29:56 71° ESE 20:35:35 10° NNE
Thor Agena Rocket 3.6 20:29:04 10° NNE 20:34:20 77° ESE 20:39:37 10° SSW
NOSS 3-3 (A) 4.0 20:28:23 10° SSW 20:34:29 76° SE 20:41:17 10° NE
NOSS 3-3 (C) 4.0 20:28:29 10° SSW 20:34:35 75° SE 20:41:23 10° NE
COSMOS 2428 3.1 20:29:22 10° SW 20:35:06 71° WNW 20:40:51 10° NNE
Cosmos 2219 Rocket 2.3 20:31:47 10° SSW 20:37:28 90° NE 20:43:09 10° NNE
Meteor 1-27 4.2 20:35:20 10° S 20:41:03 84° E 20:46:43 10° NNE
Spot 2 Rocket 3.5 20:36:16 10° SSE 20:41:22 83° ENE 20:46:28 10° NNW
Cosmos 2237 Rocket 2.3 20:36:40 10° S 20:42:06 54° ESE 20:47:35 10° NE
ATLAS 5 CENTAUR R/B 3.7 20:38:11 10° NW 20:42:54 28° NNE 20:48:07 10° E
ATLAS CENTAUR R/B 1.0 20:39:18 10° SSW 20:43:00 76° SE 20:46:55 10° NE
ERS-2 3.7 20:41:05 10° SSW 20:44:30 37° W 20:47:58 10° NNW
Cosmos 1515 Rocket 3.6 20:41:14 10° S 20:45:40 68° E 20:50:07 10° NNE
Cosmos 2278 Rocket 2.6 20:42:10 10° NW 20:47:48 64° WSW 20:53:23 10° SSE
Cosmos 1869 3.7 20:45:04 10° SSE 20:48:52 42° E 20:52:41 10° NNE
YAOGAN 6 3.7 20:46:39 10° S 20:50:09 45° W 20:53:42 10° NNW
USA 186 3.4 20:51:10 10° SSW 20:53:04 22° W 20:55:03 10° NW
Cosmos 1455 2.8 20:49:19 10° SSW 20:53:07 60° WNW 20:56:58 10° N
Cosmos 1939 Rocket 3.8 20:49:47 10° S 20:53:32 47° W 20:57:23 10° NNW
NOAA 11 4.3 20:50:58 10° SSE 20:56:29 87° WSW 21:02:02 10° NNW
Cosmos 405 3.2 20:54:06 10° N 20:57:33 50° ENE 21:00:28 13° SSE
Cosmos 1441 Rocket 4.3 20:56:36 13° SE 20:59:02 24° E 21:02:07 10° NE
Cosmos 2228 Rocket 3.1 20:55:10 10° S 20:59:34 89° W 21:04:01 10° N
NOSS 0 Rocket 3.9 20:55:08 10° SSW 21:01:20 84° ESE 21:07:34 10° NNE
Cosmos 1727 Rocket 4.0 20:55:15 10° N 21:01:24 64° ENE 21:07:31 10° SSE
Cosmos 1959 Rocket 4.4 20:55:35 10° S 21:01:39 67° E 21:07:43 10° NNE
Cosmos 1328 Rocket 4.2 20:58:02 10° SSW 21:02:24 60° WNW 21:06:50 10° N
CZ-3B R/B 3.6 21:03:15 10° W 21:04:28 18° SW 21:05:12 14° S
Cosmos 614 Rocket 4.4 21:00:50 10° NNW 21:05:56 48° ENE 21:09:52 16° SE
USA 245 3.6 21:12:03 20° E 21:12:28 21° ENE 21:14:16 10° NNE
ERS-1 Rocket 3.3 21:10:00 15° SE 21:13:55 51° ENE 21:18:47 10° N
USA 234 4.0 21:08:25 10° E 21:14:40 50° N 21:20:56 10° WNW
Cosmos 407 Rocket 3.5 21:10:22 10° NNW 21:15:32 84° WSW 21:20:01 14° SSE
Cosmos 2218 Rocket 4.1 21:17:06 10° S 21:23:29 87° W 21:29:57 10° N
Terra 3.3 21:21:23 15° E 21:23:49 22° ENE 21:27:30 10° N
USA 81 4.0 21:19:46 10° N 21:25:05 77° E 21:29:43 14° S
Resurs 01 Rocket 3.5 21:22:07 10° SSW 21:26:01 29° W 21:29:55 10° NNW
Cosmos 1943 Rocket 3.6 21:22:49 10° NNW 21:27:24 26° NE 21:31:06 14° E
SPOT 1/Viking Rocket 4.1 21:24:47 20° SE 21:28:02 43° ENE 21:32:57 10° N
MetOp-B 4.1 21:23:35 15° SSE 21:28:04 81° ENE 21:33:27 10° NNW
ARGOS 3.1 21:24:27 13° SSE 21:29:12 90° WSW 21:34:37 10° NNW
Cosmos 1633 4.3 21:26:53 10° NNE 21:29:19 17° ENE 21:30:02 16° E
SL-8 R/B 3.8 21:24:56 10° WSW 21:29:36 54° SSE 21:33:42 13° E
Cosmos 405 Rocket 2.9 21:28:20 19° SSE 21:30:51 50° E 21:34:42 10° NNE
Cosmos 1825 3.9 21:28:43 10° NNW 21:32:08 32° W 21:35:30 10° SSW
Cosmos 2366 rocket 4.1 21:26:14 10° S 21:32:28 83° W 21:38:50 10° N
Cosmos 1371 Rocket 4.1 21:27:31 10° SSW 21:32:52 87° WNW 21:38:16 10° NNE
SL-16 R/B 2.2 21:28:05 10° S 21:33:37 57° ESE 21:39:09 10° NE
Helios 1B rocket 3.7 21:30:18 10° NE 21:33:38 23° E 21:34:07 22° ESE
Cosmos 1437 Rocket 3.7 21:30:22 10° N 21:33:51 31° ENE 21:35:10 25° ESE
Cosmos 1862 3.3 21:31:35 10° N 21:35:39 87° WSW 21:38:19 21° S
H-2A R/B 1.9 21:32:06 18° SSE 21:35:52 83° ENE 21:40:50 10° NNW
Meteor 2-10 Rocket 3.8 21:30:10 10° S 21:35:57 88° E 21:41:50 10° NNE
Meteor 1-4 Rocket 4.2 21:33:34 10° NNE 21:36:06 18° ENE 21:36:41 18° E
Cosmos 676 Rocket 4.0 21:32:32 10° NNW 21:37:50 86° WSW 21:41:19 22° SSE
Cosmos 1023 Rocket 4.4 21:36:43 10° NNW 21:41:56 89° ENE 21:45:04 24° SSE
RESURS DK-1 3.9 21:38:25 10° NNW 21:41:58 26° NE 21:43:51 19° E
BREEZE-M DEB (TANK) 1.9 21:38:57 10° W 21:44:24 85° S 21:45:18 38° E
Lacrosse 5 2.2 21:42:01 10° NW 21:47:04 60° NNE 21:50:12 23° E
SPOT 5 2.7 21:49:22 30° SE 21:51:31 66° ENE 21:55:54 10° N
SL-08 RB Rocket 3.9 21:49:34 21° S 21:52:33 69° WSW 21:57:01 10° NNW
Cosmos 2056 Rocket 3.8 21:48:45 10° SSW 21:54:10 74° WNW 21:59:35 10° NNE
Cosmos 1452 Rocket 3.7 21:51:35 21° S 21:54:53 51° ESE 21:59:58 10° NNE
Cosmos 1707 Rocket 3.4 21:57:26 23° S 22:00:07 85° E 22:04:29 10° N
Cosmos 1603 4.3 21:59:46 30° SE 22:01:00 33° ESE 22:05:59 10° NE
CZ-4C R/B 2.7 22:01:05 31° SSE 22:02:29 36° ESE 22:07:53 10° NE
Cosmos 2344 3.7 21:55:40 10° SSW 22:02:58 53° ESE 22:11:11 10° NE
Helios 1A 3.0 22:01:11 32° S 22:03:03 80° WSW 22:07:16 10° NNW
Cosmos 1869 Rocket 4.5 22:00:25 10° NNW 22:04:36 45° W 22:07:36 17° SSW
Cosmos 1140 Rocket 3.8 21:59:54 10° NNW 22:05:02 62° WSW 22:07:50 26° S
Cosmos 2369 Rocket 2.5 22:00:08 10° NNW 22:05:46 55° NE 22:08:18 31° ESE
Cosmos 2098 Rocket 4.5 22:04:28 10° SW 22:08:15 31° WNW 22:11:25 10° NNW
Cosmos 1850 Rocket 4.0 22:03:37 10° NNW 22:08:48 73° ENE 22:10:53 37° SE
Cosmos 1461 4.4 22:04:46 10° NNW 22:09:08 33° NE 22:11:26 22° E
Meteor 1-14 Rocket 4.2 22:08:00 10° N 22:13:32 64° ENE 22:15:42 36° SE
Cosmos 1733 Rocket 3.0 22:09:56 10° N 22:14:21 74° E 22:15:33 46° SSE
Cosmos 2333 Rocket 4.4 22:09:58 10° W 22:14:45 27° NW 22:19:33 10° NNE
CZ-2C R/B 4.0 22:12:02 10° NE 22:16:07 21° E 22:16:11 21° E
CARTOSAT-1 3.6 22:16:38 47° SE 22:17:41 64° ENE 22:21:58 10° N
Cosmos 1741 Rocket 4.0 22:12:18 10° NNW 22:17:41 82° ENE 22:19:42 40° SSE
USA 267 3.7 22:15:00 10° ENE 22:20:58 36° SE 22:22:53 31° SSE
ATLAS CENTAUR R/B 3.9 22:19:28 10° W 22:22:26 21° NNW 22:25:33 10° NNE
Cosmos 1934 Rocket 3.9 22:20:35 33° SSE 22:23:24 66° E 22:29:24 10° NNE
IGS 5A 3.4 22:23:39 55° SE 22:24:28 74° ENE 22:28:40 10° N
YAOGAN 11 4.2 22:23:47 50° ESE 22:24:37 61° ENE 22:28:53 10° N
Cosmos 2237 Rocket 3.9 22:21:24 10° WSW 22:26:26 33° NW 22:31:32 10° NNE
Cosmos 1933 3.7 22:25:28 30° SSW 22:27:20 61° WNW 22:31:24 10° N
ATLAS 5 CENTAUR R/B 2.4 22:22:40 10° NW 22:28:25 76° NE 22:31:04 37° SE
Spot 1 4.4 22:29:26 41° S 22:31:06 74° WSW 22:35:46 10° NNW
Cosmos 1606 3.5 22:32:55 39° ENE 22:32:55 39° ENE 22:36:05 10° NNE
Meteor 1-25 Rocket 4.2 22:26:35 10° NNW 22:32:23 85° E 22:34:27 42° SSE
Cosmos 1782 Rocket 4.4 22:33:46 10° N 22:37:56 35° ENE 22:38:13 35° E
GENESIS II 4.3 22:36:50 10° NW 22:40:45 60° SW 22:40:50 60° SW
Meteor 1-26 Rocket 4.1 22:39:28 36° S 22:41:50 89° E 22:47:27 10° NNE
Cosmos 1782 3.5 22:43:19 40° ENE 22:43:19 40° ENE 22:46:29 10° NNE
Landsat 7 4.2 22:41:54 39° SSW 22:43:23 58° W 22:48:06 10° NNW
GEOS 3 Rocket 3.5 22:40:28 10° NE 22:45:53 75° SE 22:49:10 24° SSW
Cosmos 2242 Rocket 3.6 22:48:32 54° SSW 22:49:27 76° WNW 22:53:54 10° N
Cosmos 1821 Rocket 4.4 22:48:11 19° SSW 22:52:48 61° WNW 22:59:02 10° N
Meteor 1-20 Rocket 4.2 22:48:40 10° NNW 22:54:07 72° W 22:55:44 46° SSW
Cosmos 1420 Rocket 4.3 22:52:30 21° SW 22:56:03 66° WNW 23:01:23 10° NNE
CZ-2C R/B 2.7 22:55:33 65° SSE 22:56:16 84° ENE 23:01:09 10° NNW
USA 234 3.3 22:54:02 32° ESE 22:57:20 79° NNE 23:03:54 10° WNW
Terra 2.2 23:00:16 48° SW 23:01:13 57° W 23:05:56 10° NNW
Meteor 1-10 Rocket 4.5 23:00:42 49° SE 23:01:36 54° E 23:07:23 10° NNE
Cosmos 1633 3.6 23:01:05 10° NNW 23:04:16 39° W 23:04:16 39° W
Cosmos 1602 4.1 23:01:01 10° N 23:04:29 58° NE 23:04:29 58° NE
Cosmos 2123 Rocket 4.4 23:00:02 10° NNW 23:06:11 56° W 23:08:47 34° SSW
Cosmos 1271 Rocket 4.0 23:02:40 10° N 23:05:45 32° NE 23:05:45 32° NE
Cosmos 1703 Rocket 3.9 23:07:17 53° ENE 23:07:17 53° ENE 23:11:02 10° NNE
Helios 1B rocket 3.6 23:05:11 10° N 23:09:04 40° WNW 23:10:29 30° WSW
Cosmos 1908 Rocket 3.6 23:04:56 10° NNW 23:09:22 72° W 23:09:35 71° WSW
Meteor 1-29 4.1 23:07:25 10° N 23:10:35 39° WNW 23:10:35 39° WNW
Meteor 1-4 Rocket 3.9 23:08:08 10° NNW 23:10:57 32° W 23:10:57 32° W
Cosmos 1943 Rocket 2.1 23:06:11 10° NNW 23:11:42 73° WSW 23:12:38 60° S
SL-8 R/B 3.6 23:07:11 10° W 23:11:42 73° SW 23:11:42 73° SW
Spot 4 3.7 23:12:55 75° SE 23:13:14 81° ENE 23:18:03 10° NNW
H-2A R/B 3.5 23:13:01 28° ENE 23:13:19 28° ENE 23:17:11 10° N
Cosmos 1486 Rocket 4.3 23:08:12 10° NNW 23:13:23 55° ENE 23:14:10 50° E
H-2A R/B 4.4 23:13:06 10° WSW 23:15:56 15° W 23:18:45 10° NW
Cosmos 1656 Rocket 4.0 23:10:31 10° NNW 23:16:10 60° ENE 23:17:21 49° ESE
Cosmos 1862 Rocket 4.4 23:15:47 39° WSW 23:16:45 46° WNW 23:21:00 10° N
SL-16 R/B 3.9 23:13:02 10° WSW 23:18:04 32° NW 23:23:08 10° NNE
RESURS DK-1 3.2 23:16:14 10° NW 23:19:45 42° W 23:19:45 42° W
Cosmos 921 Rocket 3.4 23:20:33 53° W 23:21:05 57° WNW 23:25:20 10° NNE
Cosmos 389 Rocket 3.8 23:23:45 10° NNW 23:26:07 38° NW 23:26:07 38° NW
Cosmos 1110 Rocket 3.9 23:28:02 75° SSE 23:28:19 78° ESE 23:33:40 10° NNE
Lacrosse 5 2.6 23:25:11 10° WNW 23:29:23 40° WSW 23:29:23 40° WSW
ALOS 2 3.4 23:32:56 41° ENE 23:32:56 41° ENE 23:36:51 10° N
Cosmos 2173 Rocket 4.0 23:34:06 57° SE 23:35:00 64° E 23:41:15 10° NNE
Cosmos 1900 4.4 23:35:03 10° NW 23:39:57 67° NE 23:40:06 66° ENE
CZ-4C R/B 4.4 23:44:25 41° NNE 23:44:25 41° NNE 23:47:25 10° N
SeaSat 1 3.1 23:43:20 43° ENE 23:44:04 46° NE 23:48:47 10° NNW
Cosmos 1603 4.5 23:41:34 22° WSW 23:44:57 48° NW 23:50:25 10° NNE
Meteor 1-11 Rocket 3.5 23:39:45 10° NNW 23:45:26 81° W 23:45:56 73° SSW
Cosmos 1943 3.3 23:45:17 51° SW 23:46:40 73° WNW 23:52:23 10° NNE
CZ-4B R/B 4.5 23:42:56 10° NNE 23:46:22 32° ENE 23:46:22 32° ENE
Cosmos 1461 3.8 23:43:53 10° NW 23:47:51 49° W 23:47:51 49° W
Gblst 52 Del rocket 4.1 23:49:50 65° E 23:49:50 65° E 23:54:49 10° ENE
Cosmos 2369 Rocket 3.4 23:44:38 10° NW 23:49:29 29° WSW 23:50:06 29° WSW
Cosmos 2016 Rocket 4.0 23:49:22 56° ESE 23:49:56 59° E 23:55:55 10° NNE
Mayak 0.2 23:46:47 10° NNE 23:49:22 29° ENE 23:49:22 29° ENE
CZ-4C R/B 2.9 23:46:06 14° WSW 23:50:45 55° NW 23:57:00 10° NE
